User: anonymous   Login
Location: Newark
(43.0000°N, 1.6781°W)
Time: 09:21:44
(UTC+00:00)
Language:

DELFI C3 - Orbit

View from above orbital plane
View from above orbital plane
View from above satellite
View from above satellite

Ground track
Ground track

The orbit data is extracted from the following two-line orbital elements,

1 32789U 08021G   22329.63783050  .00014567  00000-0  71231-3 0  9990
2 32789  97.3261 350.4356 0011145 115.9455 244.2929 15.18263294796349
Epoch (UTC): 25 November 2022 15:18:28
Eccentricity: 0.0011145
inclination: 97.3261°
perigee height: 503 km
apogee height: 519 km
right ascension of ascending node: 350.4356°
argument of perigee: 115.9455°
revolutions per day: 15.18263294
mean anomaly at epoch: 244.2929°
orbit number at epoch: 79634

The dashed part of the orbit path shows where the satellite is in the earth's shadow,  

DLR